Location: *
(46.3500°N, 10.9000°E)
Time: 16:41:13
(UTC+00:00)

Explorer 7 - Visible Passes

Search period start: 11 April 2021 00:00
Search period end: 21 April 2021 00:00
Orbit: 484 x 677 km, 50.3° (Epoch: 10 April)

Date Brightness Start Highest point End Pass type
(mag) Time Alt. Az. Time Alt. Az. Time Alt. Az.
11 Apr 8.5 00:59:13 36° NE 00:59:13 36° NE 01:02:20 10° ENE visible
11 Apr 7.6 02:35:30 20° WNW 02:38:39 60° NNE 02:43:29 10° E visible
12 Apr 8.3 01:03:22 41° NE 01:03:22 41° NE 01:06:54 10° ENE visible
12 Apr 7.4 02:39:38 17° WNW 02:43:13 71° NNE 02:48:06 10° ESE visible
13 Apr 8.1 01:07:35 46° NE 01:07:35 46° NE 01:11:31 10° E visible
13 Apr 7.2 02:43:52 15° WNW 02:47:44 86° NNE 02:52:38 10° ESE visible
14 Apr 7.9 01:11:57 52° NE 01:11:57 52° NE 01:16:08 10° E visible
14 Apr 7.1 02:48:15 15° WNW 02:52:12 74° SSW 02:57:04 10° SE visible
15 Apr 7.7 01:16:32 57° NE 01:16:32 57° NE 01:20:45 10° E visible
15 Apr 7.3 02:52:51 15° WNW 02:56:37 54° SSW 03:01:22 10° SE visible
16 Apr 7.6 01:21:27 56° E 01:21:27 56° E 01:25:21 10° ESE visible
16 Apr 7.7 02:57:47 17° W 03:00:58 38° SW 03:05:28 10° SSE visible
16 Apr 9.3 20:18:56 10° SSW 20:19:02 11° SSW 20:19:02 11° SSW visible
17 Apr 8.1 01:26:53 37° ESE 01:26:53 37° ESE 01:29:52 10° ESE visible
17 Apr 8.1 03:03:16 20° W 03:05:17 27° SW 03:09:19 10° SSE visible
17 Apr 8.7 18:45:46 10° SSE 18:47:27 12° SE 18:49:08 10° ESE visible
17 Apr 7.6 20:23:07 10° SW 20:25:50 38° SSW 20:25:50 38° SSW visible
18 Apr 9.1 01:32:59 18° SE 01:32:59 18° SE 01:34:16 10° SE visible
18 Apr 8.5 03:09:25 18° SW 03:09:31 18° SW 03:12:46 10° S visible
18 Apr 8.2 18:48:43 10° S 18:51:36 19° SE 18:54:37 10° E visible
18 Apr 6.7 20:27:27 10° WSW 20:31:34 81° SSE 20:32:02 68° E visible
18 Apr 9.7 22:08:09 10° W 22:08:26 12° W 22:08:26 12° W visible
19 Apr 7.7 18:52:22 10° SSW 18:55:50 29° SE 18:59:30 10° E visible
19 Apr 6.9 20:31:56 10° WSW 20:36:03 78° NNW 20:37:35 39° ENE visible
19 Apr 9.3 22:12:45 10° WNW 22:13:55 18° WNW 22:13:55 18° WNW visible
20 Apr 7.2 18:56:22 10° SW 19:00:08 43° SE 19:04:10 10° ENE visible
20 Apr 7.3 20:36:28 10° W 20:40:34 63° NNW 20:42:34 30° ENE visible
20 Apr 9.1 22:17:19 10° WNW 22:18:53 21° WNW 22:18:53 21° WNW visible
